Location: Unspecified
(0.0000°N, 0.0000°E)
Time: 02:55:40
(UTC+00:00)

GONETS D1M 1 - Pass Details

Date: 19 May 2026
Orbit: 1435 x 1448 km, 82.5° (Epoch: 9 June)

Event Time Altitude Azimuth Distance (km) Brightness Sun altitude
Rises 18:26:44 0° 341° (NNW) 4,518 9.9 -7.1°
Reaches altitude 10° 18:29:46 10° 334° (NNW) 3,540 9.4 -7.8°
Maximum altitude 18:37:32 41° 267° (W) 1,971 8.0 -9.6°
Drops below altitude 10° 18:45:21 10° 199° (SSW) 3,544 8.7 -11.5°
Sets 18:48:25 0° 192° (SSW) 4,523 9.2 -12.2°
